Location: Cactus School
(34.5700°N, 118.0931°W)
Time: 00:24:17
(UTC-07:00)

Vanguard 1 Rocket - Pass Details

Date: 18 April 2024
Orbit: 650 x 4220 km, 34.3° (Epoch: 27 May)

Event Time Altitude Azimuth Distance (km) Brightness Sun altitude
Rises 23:28:26 0° 281° (W) 4,026 11.1 -40.0°
Reaches altitude 10° 23:30:38 10° 278° (W) 3,334 10.6 -40.2°
Enters shadow 23:36:27 54° 258° (WSW) 2,083 9.0 -40.7°
Maximum altitude 23:39:16 72° 196° (SSW) 2,087 - -41.0°
Drops below altitude 10° 23:56:49 10° 117° (ESE) 6,312 - -42.3°
Sets 00:02:48 0° 116° (ESE) 7,790 - -42.6°
